Flag for Germany Weather past 2 weeks in Freiburg, Baden-Württemberg, Germany

Now
51 °F

Overcast.


Feels Like: 51 °F
Forecast: 49 / 71 °F
Wind: 1 mph from Northeast

Location: Freiburg

Current Time: Sep 2, 2014 at 5:18:24 AM

Latest Report: Sep 2, 2014 at 4:00 AM


Visibility: 9 mi

Pressure: 30.16 "Hg

Humidity: 95%

Dew point: 50 °F

Location of FreiburgLocation

Historic Weather in Freiburg — Graph

°F

Freiburg temperature yesterday

Maximum temperature yesterday: 64 °F (at 7:00 PM)
Minimum temperature yesterday: 53 °F (at 10:00 PM)
Average temperature yesterday: 58 °F

Past Weeks' High & Low Weather Summary

 TemperatureHumidityPressure
High77 °F (Aug 28, 6:00 PM)97% (Aug 28, 7:00 AM)30.19 "Hg (Aug 28, 7:00 AM)
Low46 °F (Aug 24, 7:00 AM)39% (Aug 19, 6:00 PM)29.72 "Hg (Aug 26, 4:00 PM)
Average61 °F77%30.02 "Hg
* Reported Aug 18 4:00 AM — Sep 2 4:00 AM, Freiburg, Weather by CustomWeather, © 2014

Note: Actual official high and low records may vary slightly from our data, if they occured in-between our weather recording intervals... More about our weather records

Advertising

Freiburg weather history for previous 24 hours

 ConditionsComfort  
Time TempWeatherWind HumidityBarometerVisibility
4:00 AM
Sep 2
51 °FOvercast.1 mph95%30.16 "Hg9 mi
3:00 AM48 °FOvercast.1 mph97%30.17 "Hg7 mi
1:00 AM48 °FClear.1 mph95%30.18 "Hg9 mi
12:00 AM50 °FClear.1 mph96%30.19 "Hg6 mi
10:00 PM
Sep 1
53 °FPassing clouds.1 mph92%30.19 "Hg10 mi
9:00 PM55 °FClear.1 mph88%30.17 "Hg12 mi
7:00 PM64 °FOvercast.2 mph65%30.14 "Hg22 mi
6:00 PM64 °FOvercast.3 mph62%30.15 "Hg22 mi
4:00 PM63 °FOvercast.2 mph66%30.15 "Hg22 mi
3:00 PM62 °FOvercast.2 mph65%30.15 "Hg19 mi
1:00 PM61 °FOvercast.2 mph68%30.16 "Hg19 mi
12:00 PM60 °FPartly sunny.2 mph73%30.16 "Hg19 mi
10:00 AM56 °FLow clouds.3 mph92%30.15 "Hg8 mi
9:00 AM56 °FLow clouds.2 mph93%30.15 "Hg6 mi
7:00 AM55 °FOvercast.1 mph96%30.11 "Hg7 mi
6:00 AM55 °FOvercast.1 mph95%30.10 "Hg7 mi
Weather by CustomWeather, © 2014

See weather overviewHow to use our weather pages